Погода в Прилесном

Украина / Волынская область     51°22′35″N   25°31′44″E
темп.,
°C
ветер,
м/с
пор.,
м/с
влажн.,
%
обл.,
%
осадки,
мм/ч
давл.,
гПа
погр.,
м
14 августа, вс
вс1400:00+17всв299392 0.1 1014224
03:00+16св269648 0.1 1014138
06:00+16всв259887 0.7 1013124
09:00+20в3787100 0.9 1013292
12:00+27в465064 0.0 1012855
15:00+30вюв473635 0.0 10111602
18:00+30в474175 0.0 10111928
21:00+23всв2465100 0.0 101158
15 августа, пн
пн1500:00+21в3127198 0.0 1011355
03:00+19всв2784100 0.0 1011173
06:00+19всв2586100 0.4 1010125
09:00+20всв388299 0.5 1010195
12:00+21св3975100 0.0 1011279
15:00+26всв4852100 0.0 1010730
18:00+24всв3961100 0.0 1010568
21:00+21св2872100 0.0 1009184
16 августа, вт
вт1600:00+20в31178100 0.0 1009227
03:00+18всв237499 0.0 100965
06:00+18св2374100 0.0 100843
09:00+21ссв2566100 0.1 1008193
12:00+27в3447100 0.0 1008861
15:00+27ссв1451100 0.0 1008662
18:00+23св3864100 0.0 1009280
21:00+21св287167 0.1 1009232
17 августа, ср
ср1700:00+18св2685100 0.1 1010119
03:00+17св268473 0.1 1010178
06:00+18св278468 0.0 1010244
09:00+21св356637 0.0 1010481
12:00+24св346090 0.0 10101182
15:00+23св357976 1.8 1011673
18:00+23всв368019 2.3 1011716
21:00+19с11867 2.7 101111
18 августа, чт
чт1800:00+19ссз259174 0.2 101293
03:00+16с26930 0.2 1011123
06:00+16св23943 0.0 101157
09:00+21св23795 0.0 1012254
12:00+27с34515 0.0 1011991
15:00+30ссв34395 0.0 10101579
18:00+30св24390 0.0 10102028
21:00+23в22630 0.0 101022